Montreal Mirabel, Quebec

3:18 PM EDT on August 27, 2016 (GMT -0400)
Montreal International (Mirabel)

Weather History for CYMX - December, 2012

Change the Weather History Date:

Thursday, December 27, 2012

  Actual Average Record
Temperature  
Mean Temperature 19 °F -  
Max Temperature 24 °F 22 °F 37 °F (2014)
Min Temperature 14 °F 8 °F 0 °F (1999)
Degree Days  
Heating Degree Days 46    
Moisture  
Dew Point 18 °F    
Average Humidity 88    
Maximum Humidity 93    
Minimum Humidity 73    
Precipitation  
Precipitation 0.00 in - - ()
Sea Level Pressure  
Sea Level Pressure 29.91 in    
Wind  
Wind Speed 11 mph ()    
Max Wind Speed 18 mph    
Max Gust Speed 33 mph    
Visibility 3.0 miles    
Events Snow    
Averages and records for this station are not official NWS values.
T = Trace of Precipitation, MM = Missing Value Source: Averaged Metar Reports

Daily Weather History Graph

Daily Weather History Graph

Search for Another Location

Airport or City:

Trip Planner

Search our weather history database for the weather conditions in past years. The results will help you decide how hot, cold, wet, or windy it might be!

Date:

Astronomy

Dec. 27, 2012 Rise Set
Actual Time 7:36 AM EST 4:18 PM EST
Civil Twilight 7:01 AM EST 4:53 PM EST
Nautical Twilight 6:24 AM EST 5:30 PM EST
Astronomical Twilight 5:48 AM EST 6:07 PM EST
Moon 4:01 PM EST 6:43 AM EST
Length of Visible Light 9h 51m
Length of Day
8h 42m
Full, 100% of the Moon is Illuminated
Dec 27
Full
Dec 28
Full
Jan 4
Last Quarter
Jan 11
New
Jan 18
First Quarter

Hourly Weather History & Observations

Time (EST) Temp. Windchill Dew Point Humidity Pressure Visibility Wind Dir Wind Speed Gust Speed Precip Events Conditions
12:00 AM 14.0 °F -0.2 °F 8.6 °F 79% 30.11 in 25.0 mi ENE 12.7 mph 24.2 mph N/A   Overcast
1:00 AM 15.8 °F 2.1 °F 8.6 °F 73% 30.10 in 25.0 mi NE 12.7 mph 21.9 mph N/A   Overcast
2:00 AM 15.8 °F 1.4 °F 10.4 °F 79% 30.08 in 25.0 mi NE 13.8 mph 21.9 mph N/A   Mostly Cloudy
2:52 AM 15.8 °F 1.4 °F 10.4 °F 79% 30.05 in 10.0 mi NE 13.8 mph 21.9 mph N/A Snow Light Snow
3:00 AM 15.8 °F 2.1 °F 10.4 °F 79% 30.04 in 2.0 mi NE 12.7 mph 23.0 mph N/A Snow Light Snow
3:41 AM 15.8 °F 1.4 °F 12.2 °F 86% 30.02 in 4.0 mi NE 13.8 mph 23.0 mph N/A Snow Light Snow
4:00 AM 15.8 °F 2.7 °F 12.2 °F 86% 30.00 in 3.0 mi NE 11.5 mph 25.3 mph N/A Snow Light Snow
5:00 AM 17.6 °F 5.0 °F 14.0 °F 86% 29.98 in 2.0 mi NE 11.5 mph 23.0 mph N/A Snow Light Snow
5:37 AM 17.6 °F 4.3 °F 14.0 °F 86% 29.96 in 1.5 mi NE 12.7 mph 23.0 mph N/A Snow Light Snow
6:00 AM 17.6 °F 4.3 °F 15.8 °F 93% 29.95 in 0.5 mi NE 12.7 mph 24.2 mph N/A Snow Snow
7:00 AM 19.4 °F 5.5 °F 15.8 °F 86% 29.90 in 0.5 mi NE 15.0 mph 28.8 mph N/A Snow Snow
8:00 AM 19.4 °F 6.6 °F 17.6 °F 93% 29.88 in 0.5 mi NE 12.7 mph 23.0 mph N/A Snow Snow
9:00 AM 19.4 °F 7.2 °F 17.6 °F 93% 29.90 in 0.5 mi NE 11.5 mph 23.0 mph N/A Snow Snow
9:26 AM 21.2 °F 9.5 °F 19.4 °F 93% 29.89 in 0.4 mi NE 11.5 mph 26.5 mph N/A Snow Snow
10:00 AM 21.2 °F 8.3 °F 19.4 °F 93% 29.88 in 0.4 mi NE 13.8 mph 24.2 mph N/A Snow Snow
11:00 AM 21.2 °F 8.3 °F 19.4 °F 93% 29.87 in 0.4 mi NE 13.8 mph 24.2 mph N/A Snow Snow
12:00 PM 23.0 °F 10.1 °F 21.2 °F 93% 29.84 in 0.4 mi NE 15.0 mph 26.5 mph N/A Snow Snow
1:00 PM 23.0 °F 8.7 °F 21.2 °F 93% 29.78 in 0.4 mi NE 18.4 mph 33.4 mph N/A Snow Snow
1:45 PM 23.0 °F 10.6 °F 21.2 °F 93% 29.78 in 0.5 mi NE 13.8 mph 26.5 mph N/A Snow Light Snow
2:00 PM 23.0 °F 11.7 °F 21.2 °F 93% 29.80 in 0.8 mi NE 11.5 mph 28.8 mph N/A Snow Light Snow
3:00 PM 23.0 °F 11.1 °F 21.2 °F 93% 29.81 in 0.8 mi NE 12.7 mph 28.8 mph N/A Snow Light Snow
3:34 PM 24.8 °F 13.4 °F 23.0 °F 93% 29.81 in 1.0 mi NE 12.7 mph 25.3 mph N/A Snow Light Snow
4:00 PM 24.8 °F 14.0 °F 23.0 °F 93% 29.82 in 1.0 mi NE 11.5 mph 21.9 mph N/A Snow Light Snow
5:00 PM 24.8 °F 13.4 °F 21.2 °F 86% 29.83 in 2.0 mi NE 12.7 mph 26.5 mph N/A Snow Light Snow
6:00 PM 24.8 °F 14.0 °F 23.0 °F 93% 29.84 in 2.0 mi NNE 11.5 mph 24.2 mph N/A Snow Light Snow
7:00 PM 24.8 °F 15.3 °F 21.2 °F 86% 29.85 in 4.0 mi NNE 9.2 mph 19.6 mph N/A Snow Light Snow
8:00 PM 24.8 °F 16.1 °F 21.2 °F 86% 29.86 in 6.0 mi NNE 8.1 mph - N/A Snow Light Snow
9:00 PM 24.8 °F 15.3 °F 23.0 °F 93% 29.87 in 6.0 mi North 9.2 mph - N/A Snow Light Snow
10:00 PM 24.8 °F 15.3 °F 21.2 °F 86% 29.87 in 15.0 mi North 9.2 mph - N/A Snow Light Snow
11:00 PM 24.8 °F 16.9 °F 19.4 °F 80% 29.89 in 15.0 mi NNW 6.9 mph - N/A Snow Light Snow